ONEWEB-0702, 61608

Orbit data source: Space-Track

ONEWEB-0702, 61608 is a payload satellite owned by Eut. One Web (UK) in LEO that was launched on Sun, 20 Oct 2024 UTC via an FALCON 9 launch vehicle from the Air Force Western Test Range (AFWTR). Payload-class satellites include a variety of spacecraft equipped with specific instruments for various scientific and technological missions. These include communications satellites like Starlink; space stations such as the ISS; scientific satellites like the Hubble; Earth observation satellites from companies like Planet Labs, Umbra, and HawkEye 360; GPS; miniature CubeSats for education and research; and military/defense satellites.

Loading next visibility...
Identifier
61608, 2024-188Q
Orbit
LEO
Country
Flag of UKUK
Related business
Manufacturer
One Web
Mission
Operational Commercial Communications
Bus & Motor
ARROW, Unknown motor
Mass
148 kg wet, ~140 kg dry
Launch date (UTC)
2024-10-20 (1 year ago)
Launch vehicle
FALCON 9
Launch site
Air Force Western Test Range (AFWTR)
Object type
Payload
Rocket body
Debris
Shape & HBR
Trap Box + 2 Pan, 6.7 m
Radar Cross Section
3.464 m², Large (>1 m²)

Expand to show TLE details & history
Last TLE update: 11 hours ago

TLE from 11 hours ago
0 ONEWEB-0702
1 61608U 24188Q   25352.57766819  .00000085  00000-0  20324-3 0  9997
2 61608  87.8825  56.9376 0000808  77.8325 282.2894 13.11413222 60815
Epoch: 2025-12-18T13:51Z
TLE epoch observation values (Epoch: 2025-12-18T13:51:50.531Z)
Latitude
0.00003°
Longitude
121.54588°
Altitude
1,220.456 km
Speed
7.244 km/s
True Right ascension
03h 47m 45s
True Declination
0° 00' 00"
Sunlit
Object was in full shadow at epoch
Visualization orbit readout
Latitude
Unknown
Longitude
Unknown
Altitude
Unknown
Speed
Unknown
Apparent Right ascension
Unknown
Apparent Declination
Unknown
Sunlit
N/A
Visualization observer readout
Local Sidereal Time
00:03:38
Azimuth
Unknown
Elevation
Unknown
Doppler factor
Unknown
Orbital elements
Apogee altitude
1,215.429 km
Perigee altitude
1,214.202 km
Semi-major axis
7,592.952 km
Eccentricity
0.00008
Inclination
87.8825°
RAAN
56.9376°
Arg. of periapsis
77.8325°
True anomaly
282.28035°
Mean anomaly
282.2894°
Eccentric anomaly
282.28488°
Mean motion
3.2804 °/min
Orbital period
109.74 mins
BSTAR
0.00020324
Loading maneuver chart data...
Computing Atmospheric mass density...
Loading historical data...
Loading historical data...
Loading historical data...
Loading historical data...
Loading historical data...
Loading historical data...
Loading historical data...

Documentation

Showing up to 5 results
|